Temp
63 61 60 58 58 59 59 59 60 61 60 59 59 58 58 58 59 61 63 73 74 75 75 75 75 74 74 74 73 73 73 73 73 73 72 72 72 72 72 71 72 72 73
64 61 58 58 58 58 59 59 63 62 59 59 59 58 57 58 58 59 60 65 73 74 75 75 74 74 74 73 73 73 72 72 72 72 72 72 71 71 71 71 71 71 71
65 61 58 57 57 58 59 59 59 61 59 60 56 57 58 56 57 58 59 59 62 72 73 74 74 74 74 73 72 72 72 72 71 71 71 71 71 71 71 70 70 70 70
67 63 60 58 57 58 58 60 61 59 56 57 54 56 56 57 57 57 58 58 58 60 67 72 73 73 73 73 72 72 71 71 71 71 71 70 70 70 70 70 70 70 70
68 66 62 58 58 57 57 61 56 60 56 54 56 54 55 56 56 59 56 57 58 58 58 69 71 72 72 72 72 71 71 71 70 70 70 70 70 69 69 69 69 70 69
68 65 60 59 58 56 56 56 58 55 57 57 62 55 53 53 54 54 55 58 56 57 57 57 57 61 71 72 72 71 71 70 70 69 69 69 69 69 69 68 69 69 69
66 64 59 58 57 59 58 58 55 57 54 55 54 53 54 53 52 52 52 53 54 54 54 54 55 55 60 70 70 70 70 70 69 69 69 68 68 68 68 68 68 68 68
65 63 61 58 58 56 57 58 58 54 53 53 52 51 50 54 52 53 50 53 52 53 53 54 53 53 53 54 58 67 67 68 68 68 68 68 68 67 67 67 67 67 67
59 61 60 59 58 59 58 57 57 56 52 52 54 53 49 49 48 49 49 50 51 50 51 52 53 53 52 52 58 61 65 66 67 67 67 67 67 67 67 66 66 67 66
56 55 60 59 59 57 59 57 58 56 55 53 55 60 58 56 53 50 50 50 54 55 53 50 52 52 52 52 57 59 64 64 64 65 65 66 66 66 66 66 66 66 66
55 56 57 57 57 55 56 58 56 56 56 55 54 56 56 55 55 54 51 53 54 54 54 52 52 51 51 51 52 55 63 63 63 63 63 64 64 64 65 65 65 65 65
53 54 55 53 53 55 58 58 59 59 58 57 57 56 55 54 53 52 51 51 51 52 49 47 48 48 50 50 55 59 62 63 62 62 62 63 63 64 64 64 64 64 64
52 52 53 53 53 54 55 57 58 58 58 58 57 55 56 55 55 54 53 50 50 50 48 46 47 48 52 49 50 58 60 63 62 62 62 62 62 62 62 63 64 64 64
53 54 54 54 55 55 55 54 54 54 56 56 55 55 54 55 55 55 54 51 47 47 44 46 47 47 49 49 52 61 55 62 62 62 62 61 61 61 61 62 62 62 63
54 53 54 54 54 55 55 54 54 54 55 55 55 55 54 53 53 53 53 51 46 41 44 49 45 47 50 52 55 55 53 57 60 60 60 60 60 60 60 61 61 61 61
54 53 53 53 54 54 54 54 54 54 54 54 54 54 53 52 52 51 49 49 50 48 46 46 46 47 48 52 52 46 48 56 58 59 59 58 58 59 59 60 60 59 59
52 53 53 53 53 53 53 53 53 53 53 53 53 53 52 52 50 50 50 49 47 47 43 41 40 40 41 42 43 42 43 43 43 54 57 57 58 58 59 58 58 58 58
53 53 53 52 52 52 52 52 53 54 53 52 53 52 51 54 49 49 47 46 42 38 39 37 36 38 39 39 39 39 44 48 43 52 55 56 57 58 58 57 57 57 57
53 54 53 52 52 52 52 52 53 52 52 52 51 51 49 48 45 43 41 39 38 41 37 36 36 36 37 37 37 38 39 39 45 51 54 54 55 56 55 56 56 55 55
51 50 50 49 48 47 48 47 47 44 45 46 45 45 44 43 41 39 40 38 39 37 36 35 34 34 34 36 35 35 35 36 37 45 48 51 53 54 54 54 54 54 54
46 47 46 45 45 46 46 41 41 41 41 40 42 43 44 46 51 46 42 38 38 35 34 34 33 33 33 33 34 34 33 35 36 36 36 38 39 40 42 48 49 51 52
41 43 42 43 43 49 51 49 43 39 40 40 40 40 42 45 49 53 53 50 42 37 34 33 33 32 32 32 33 32 32 32 34 36 34 38 37 37 38 39 47 50 52
38 38 39 40 41 43 51 49 46 38 37 36 36 38 41 44 43 40 47 48 47 49 48 36 33 32 32 34 33 33 38 38 37 38 35 36 36 38 40 44 48 49 51
37 36 37 38 39 45 50 48 45 35 35 35 36 36 36 36 38 41 38 37 37 38 39 41 37 40 40 40 40 41 40 39 35 36 37 36 39 39 39 40 46 48 49
35 35 36 37 37 38 49 47 40 35 35 34 36 36 36 36 44 50 39 38 40 42 46 48 48 48 48 47 46 37 33 35 35 37 35 37 40 39 36 38 39 46 47
37 37 36 35 43 37 49 47 40 36 33 35 35 36 44 42 48 49 43 41 39 39 41 38 36 36 38 37 44 35 33 34 33 33 39 35 37 38 35 40 36 40 41
MSLP
1017.42 1017.86 1018.28 1018.59 1018.93 1019.25 1019.48 1019.85 1020.13 1020.51 1021.00 1021.44 1021.70 1021.78 1022.12 1022.27 1022.32 1022.32 1022.27 1022.22 1022.16 1022.32 1022.41 1022.51 1022.61 1022.71 1022.82 1022.89 1022.80 1022.75 1022.75 1022.73 1022.58 1022.62 1022.59 1022.64 1022.43 1022.18 1022.03 1021.91 1021.82 1021.61 1021.40
1017.33 1017.86 1018.49 1018.80 1019.16 1019.41 1019.59 1019.88 1020.13 1020.77 1021.28 1021.66 1022.11 1022.35 1022.58 1022.70 1022.80 1022.88 1022.96 1022.89 1022.82 1022.84 1022.90 1023.04 1023.21 1023.23 1023.37 1023.48 1023.46 1023.37 1023.44 1023.42 1023.35 1023.34 1023.24 1023.23 1023.11 1023.11 1022.93 1022.78 1022.61 1022.42 1022.18
1017.20 1017.87 1018.51 1018.90 1019.31 1019.63 1019.84 1020.10 1020.61 1021.06 1021.66 1022.06 1022.55 1022.76 1022.97 1023.20 1023.34 1023.44 1023.46 1023.56 1023.57 1023.46 1023.51 1023.59 1023.71 1023.83 1023.87 1024.04 1024.10 1023.98 1024.01 1024.05 1024.01 1023.97 1023.93 1023.79 1023.71 1023.62 1023.55 1023.46 1023.26 1023.11 1022.95
1016.99 1017.69 1018.31 1018.87 1019.34 1019.53 1019.94 1020.27 1020.70 1021.51 1022.01 1022.64 1022.93 1023.14 1023.34 1023.52 1023.78 1023.93 1023.98 1024.04 1024.13 1024.18 1024.11 1024.04 1024.17 1024.31 1024.31 1024.50 1024.54 1024.47 1024.48 1024.60 1024.68 1024.59 1024.55 1024.39 1024.26 1024.16 1024.11 1024.01 1023.96 1023.83 1023.66
1016.95 1017.49 1017.97 1018.79 1019.28 1019.71 1020.26 1020.50 1021.25 1021.54 1022.41 1023.07 1023.35 1023.54 1023.68 1023.87 1024.11 1024.16 1024.46 1024.55 1024.54 1024.56 1024.70 1024.59 1024.72 1024.77 1024.76 1024.89 1024.93 1024.97 1024.95 1024.99 1025.00 1025.09 1025.08 1025.01 1024.92 1024.79 1024.64 1024.52 1024.29 1024.05 1024.05
1016.60 1017.31 1017.97 1018.56 1019.09 1019.75 1020.38 1020.79 1021.23 1021.94 1022.40 1022.97 1023.63 1024.27 1024.44 1024.51 1024.54 1024.61 1024.81 1024.88 1025.01 1024.95 1024.98 1025.16 1025.30 1025.34 1025.17 1025.28 1025.32 1025.37 1025.25 1025.28 1025.44 1025.47 1025.43 1025.44 1025.39 1025.29 1025.20 1024.96 1024.92 1024.64 1024.37
1016.64 1017.21 1017.98 1018.48 1019.00 1019.67 1020.18 1020.71 1021.50 1021.98 1022.89 1023.15 1023.76 1024.74 1024.95 1024.99 1025.13 1025.16 1025.28 1025.28 1025.46 1025.47 1025.41 1025.54 1025.73 1025.76 1025.78 1025.74 1025.65 1025.79 1025.72 1025.72 1025.78 1025.82 1025.83 1025.69 1025.66 1025.59 1025.55 1025.43 1025.31 1025.07 1024.86
1016.72 1017.32 1017.83 1018.58 1018.93 1019.55 1020.30 1020.73 1021.13 1022.29 1022.74 1022.97 1023.63 1024.41 1025.15 1025.36 1025.32 1025.48 1025.72 1025.51 1025.75 1025.87 1025.93 1025.93 1025.95 1026.15 1026.24 1026.27 1026.24 1026.15 1026.09 1026.03 1026.09 1026.18 1026.22 1026.11 1026.03 1025.93 1025.91 1025.79 1025.64 1025.43 1025.22
1016.96 1017.58 1017.95 1018.43 1018.98 1019.22 1020.08 1020.65 1021.01 1021.42 1022.58 1023.15 1023.14 1023.45 1024.81 1024.96 1025.25 1025.60 1025.71 1025.68 1025.87 1026.08 1026.21 1026.26 1026.20 1026.30 1026.45 1026.50 1026.43 1026.42 1026.38 1026.41 1026.44 1026.49 1026.57 1026.46 1026.28 1026.15 1026.07 1025.95 1025.81 1025.63 1025.44
1017.31 1017.81 1018.75 1018.42 1018.83 1019.24 1019.72 1020.16 1020.61 1021.05 1021.73 1022.78 1023.04 1023.03 1023.13 1023.52 1024.59 1025.63 1025.76 1025.66 1025.74 1025.91 1025.83 1026.27 1026.30 1026.23 1026.27 1026.48 1026.54 1026.63 1026.47 1026.56 1026.67 1026.71 1026.68 1026.69 1026.57 1026.48 1026.38 1026.12 1025.95 1025.71 1025.45
1018.52 1019.04 1019.20 1018.78 1019.24 1019.53 1019.83 1020.08 1020.63 1021.05 1021.34 1022.26 1022.71 1023.27 1023.55 1023.71 1023.87 1024.58 1025.49 1025.68 1025.80 1025.91 1025.73 1025.85 1026.02 1026.19 1026.24 1026.31 1026.35 1026.49 1026.35 1026.61 1026.84 1026.98 1026.86 1026.75 1026.62 1026.51 1026.44 1026.28 1026.08 1025.94 1025.63
1018.05 1019.07 1019.59 1019.65 1019.73 1019.64 1020.03 1020.22 1020.61 1021.19 1021.55 1022.24 1022.75 1023.01 1023.38 1024.13 1024.58 1024.66 1025.31 1025.69 1025.82 1025.95 1025.95 1026.05 1026.04 1026.11 1026.15 1026.22 1026.39 1026.27 1026.38 1026.49 1026.81 1026.87 1026.81 1026.69 1026.65 1026.49 1026.31 1026.23 1026.06 1025.88 1025.61
1018.73 1019.13 1019.43 1019.91 1020.18 1020.25 1020.33 1020.51 1020.97 1021.60 1021.72 1021.93 1022.55 1023.07 1023.53 1024.34 1024.44 1024.71 1024.90 1025.51 1026.17 1026.37 1026.44 1026.39 1026.16 1025.95 1026.12 1026.28 1026.22 1026.21 1026.29 1026.36 1026.62 1026.66 1026.61 1026.55 1026.52 1026.47 1026.43 1026.24 1025.98 1025.71 1025.43
1018.90 1019.19 1019.86 1020.14 1020.56 1020.55 1020.98 1021.28 1021.75 1022.02 1021.88 1022.36 1022.95 1023.25 1023.79 1024.44 1024.42 1024.42 1024.70 1025.24 1026.22 1026.67 1026.59 1026.54 1026.28 1026.32 1026.39 1026.28 1026.21 1025.87 1025.96 1026.16 1026.20 1026.28 1026.33 1026.30 1026.43 1026.31 1026.18 1026.05 1025.78 1025.44 1025.14
1019.32 1019.62 1020.11 1020.43 1020.83 1020.84 1021.51 1022.04 1022.16 1022.57 1022.16 1022.32 1022.67 1023.38 1023.83 1024.23 1024.48 1024.36 1024.60 1025.36 1025.77 1026.77 1026.75 1026.52 1026.67 1026.54 1026.51 1026.38 1026.21 1026.26 1026.34 1026.25 1026.25 1026.33 1026.19 1026.19 1026.23 1026.16 1025.94 1025.75 1025.57 1025.20 1024.86
1019.49 1019.89 1020.39 1020.67 1021.07 1021.38 1021.89 1022.19 1022.38 1022.57 1022.39 1022.28 1022.88 1023.64 1023.73 1023.91 1024.07 1024.81 1025.23 1025.60 1025.75 1026.47 1026.92 1026.89 1026.87 1026.74 1026.71 1026.55 1026.65 1026.71 1026.79 1026.50 1026.29 1026.17 1026.31 1026.25 1026.13 1025.90 1025.64 1025.33 1025.12 1024.97 1024.79
1019.99 1020.27 1020.64 1020.71 1021.61 1021.87 1022.25 1022.50 1022.88 1023.19 1022.97 1023.03 1023.30 1023.84 1024.12 1023.96 1024.49 1025.08 1025.55 1025.97 1026.48 1026.68 1027.27 1027.52 1027.66 1027.56 1027.19 1027.07 1026.95 1026.98 1026.88 1027.12 1026.80 1026.39 1026.20 1026.08 1025.78 1025.32 1025.09 1024.85 1024.76 1024.68 1024.38
1020.40 1020.51 1020.76 1021.01 1021.88 1022.06 1022.24 1022.75 1022.96 1023.20 1023.19 1023.36 1024.03 1023.72 1024.49 1024.76 1024.96 1025.72 1026.09 1026.53 1026.88 1027.21 1027.66 1028.07 1028.06 1027.80 1027.53 1027.24 1027.36 1027.24 1027.09 1026.80 1026.75 1026.36 1025.99 1025.70 1025.26 1024.75 1024.66 1024.52 1024.42 1024.16 1024.02
1021.11 1020.96 1020.91 1021.73 1022.31 1022.40 1022.71 1023.19 1023.25 1023.63 1023.41 1023.73 1024.39 1024.28 1024.71 1025.18 1025.75 1026.07 1026.53 1026.88 1027.28 1027.46 1027.63 1028.00 1028.47 1028.27 1027.95 1027.69 1027.38 1027.39 1027.16 1026.88 1026.56 1026.21 1025.75 1025.46 1024.97 1024.68 1024.51 1024.27 1024.06 1023.96 1023.70
1021.71 1021.79 1022.03 1022.50 1023.08 1022.99 1023.39 1023.43 1023.68 1023.98 1024.50 1024.40 1025.19 1025.00 1025.07 1025.34 1025.82 1026.44 1026.76 1027.00 1027.30 1027.68 1027.83 1028.15 1028.35 1028.29 1028.29 1027.92 1027.86 1027.57 1027.40 1026.94 1026.59 1025.94 1025.62 1025.21 1024.78 1024.49 1024.29 1024.07 1023.81 1023.62 1023.37
1022.77 1022.91 1023.03 1022.99 1023.99 1023.47 1023.93 1024.13 1024.55 1024.74 1025.29 1025.56 1025.47 1025.59 1025.63 1025.51 1025.57 1026.43 1026.51 1027.16 1027.31 1027.85 1027.82 1027.90 1028.43 1028.26 1028.34 1028.27 1028.02 1027.35 1027.51 1026.91 1026.38 1025.86 1025.47 1025.06 1024.84 1024.51 1024.19 1023.90 1023.72 1023.50 1023.12
1023.63 1023.68 1024.03 1023.83 1024.08 1024.16 1024.35 1024.88 1025.30 1025.70 1026.26 1026.05 1026.04 1026.34 1026.18 1026.07 1026.06 1026.35 1026.33 1026.86 1027.43 1027.19 1027.54 1027.82 1027.90 1028.39 1028.28 1028.16 1027.57 1027.20 1027.33 1027.11 1026.58 1025.64 1025.48 1024.99 1024.78 1024.48 1024.20 1023.86 1023.39 1023.07 1022.64
1023.82 1024.69 1024.75 1024.74 1024.65 1024.86 1025.19 1025.42 1026.14 1026.54 1026.52 1026.48 1026.66 1026.58 1026.77 1026.81 1027.04 1027.37 1027.25 1027.34 1027.18 1026.75 1026.66 1027.29 1027.84 1027.84 1027.76 1027.42 1027.03 1026.97 1026.86 1026.52 1026.18 1025.49 1025.43 1024.92 1024.52 1024.21 1023.71 1023.32 1023.09 1022.63 1022.18
1024.39 1025.38 1025.76 1025.51 1025.34 1025.65 1025.83 1026.15 1026.43 1026.91 1027.04 1027.01 1027.01 1027.08 1027.41 1027.32 1027.48 1027.32 1027.64 1027.47 1027.71 1027.54 1027.58 1027.20 1027.24 1026.90 1026.94 1026.69 1026.59 1026.36 1026.32 1026.13 1025.81 1025.31 1025.12 1024.60 1024.08 1023.71 1023.33 1022.98 1022.65 1022.28 1021.71
1025.37 1025.78 1026.23 1026.11 1026.14 1025.96 1025.91 1026.31 1027.15 1027.37 1027.41 1027.56 1027.38 1027.52 1027.55 1027.51 1027.19 1026.52 1026.91 1027.00 1027.29 1027.37 1027.16 1026.74 1026.54 1026.42 1026.32 1026.22 1026.03 1026.21 1026.27 1026.18 1025.59 1025.24 1024.99 1024.35 1023.77 1023.57 1023.25 1022.67 1022.38 1022.18 1021.67
1025.53 1026.13 1026.50 1026.59 1026.36 1026.04 1025.82 1026.59 1027.27 1027.47 1027.34 1027.38 1027.53 1027.54 1027.40 1027.26 1026.62 1026.27 1026.51 1026.93 1027.41 1027.59 1027.46 1027.27 1027.22 1027.12 1026.99 1026.72 1026.10 1026.35 1026.45 1026.25 1025.90 1025.22 1024.68 1024.81 1024.35 1024.03 1023.26 1022.69 1022.56 1022.22 1021.95
Wind_Speed
5 4 4 4 4 4 5 4 6 6 7 6 5 7 6 6 6 3 3 15 17 19 19 20 20 20 20 20 21 21 22 22 22 22 22 22 22 22 22 22 22 21 21
5 4 4 4 4 4 4 5 8 7 5 6 6 6 6 6 6 6 4 5 14 16 18 18 18 18 18 19 19 20 20 20 20 20 20 20 21 22 21 21 21 20 21
7 6 4 4 4 4 6 6 6 6 6 4 6 5 5 6 5 6 5 5 5 12 14 15 16 16 17 17 17 18 18 19 19 19 19 19 19 19 19 20 20 20 20
9 7 5 4 4 4 5 7 7 6 5 5 4 4 4 5 6 6 5 4 4 4 6 12 13 14 14 14 15 16 16 17 17 18 18 18 18 18 17 17 17 18 18
8 7 7 5 6 5 5 8 4 8 6 4 4 4 3 5 5 4 5 5 5 5 4 9 9 10 12 12 13 13 14 15 15 16 16 16 17 17 17 17 16 15 15
10 7 5 7 6 5 5 5 7 4 4 6 5 5 4 3 2 3 4 3 3 4 4 5 4 3 9 9 10 11 12 13 13 13 14 14 14 15 15 16 16 15 15
10 7 5 7 6 7 6 7 4 8 3 3 5 3 3 3 2 1 1 2 2 1 2 3 2 2 3 7 7 8 9 10 11 11 11 12 12 13 13 13 13 14 15
7 8 7 6 6 6 7 6 7 4 2 3 4 3 2 2 2 2 1 2 3 1 1 2 2 2 3 2 3 6 6 7 8 9 9 10 11 12 13 13 13 14 14
6 6 4 6 6 6 8 6 6 7 4 1 2 5 3 3 2 1 3 3 3 2 2 3 3 3 3 2 2 3 4 4 5 7 8 10 11 12 13 13 14 15 14
8 6 5 5 7 4 7 5 5 5 6 4 2 3 4 4 3 1 1 2 3 4 5 3 4 5 5 3 5 5 5 3 3 4 6 8 10 11 12 14 15 15 16
7 5 1 5 5 4 4 6 5 5 4 4 3 2 3 3 4 3 2 1 1 1 2 3 4 3 5 4 3 5 7 5 2 1 4 7 8 9 11 12 14 15 17
8 7 5 5 4 5 6 6 7 8 8 6 5 4 4 3 0 2 3 1 1 2 2 1 2 3 3 3 4 5 8 5 2 1 4 5 7 10 12 14 16 17 18
5 6 6 6 4 5 6 7 9 8 6 8 7 5 4 1 2 2 3 3 1 2 2 2 2 0 1 1 3 6 7 6 5 4 4 5 9 11 13 16 18 19 19
7 8 7 6 7 8 8 7 5 5 7 6 7 4 4 3 2 2 3 4 1 1 1 2 2 3 3 2 3 5 2 4 5 6 5 7 9 13 17 20 20 19 20
6 7 7 7 4 8 6 4 4 3 4 4 5 3 2 2 3 2 2 2 4 3 3 1 1 0 2 1 3 2 1 3 4 3 5 8 12 16 19 20 19 16 17
7 8 6 6 5 5 4 3 3 2 3 3 3 3 3 2 4 4 3 2 2 2 2 1 1 3 4 3 5 4 3 5 4 5 7 8 11 16 22 22 18 16 19
7 7 7 7 5 5 3 3 1 2 2 3 3 4 3 4 4 4 4 3 3 2 2 2 1 2 3 3 5 4 3 4 4 10 11 16 19 18 17 15 18 19 20
6 6 6 6 4 3 3 3 4 3 4 4 3 5 5 4 6 4 3 4 3 2 3 2 1 2 2 2 2 2 3 3 4 10 15 17 19 20 16 15 19 18 22
8 7 9 8 6 6 5 4 5 4 5 5 4 6 5 6 4 3 2 4 3 2 2 2 2 2 2 1 2 2 3 4 3 11 14 15 16 16 16 18 17 20 22
9 9 9 9 8 8 7 7 7 7 6 6 5 5 6 6 6 5 3 4 3 3 2 2 1 2 2 2 1 2 4 2 4 4 9 13 15 17 19 18 19 19 15
8 8 10 9 6 8 5 7 6 7 6 6 6 5 4 7 8 6 3 2 4 2 2 2 1 1 2 2 3 2 3 4 4 4 3 3 3 4 7 13 12 15 17
7 8 7 8 7 6 14 11 8 6 5 5 6 5 6 9 5 3 2 8 6 4 2 2 1 2 4 4 3 2 2 3 4 2 1 6 1 4 5 4 14 18 19
7 7 7 7 7 6 11 11 10 4 5 5 5 5 4 4 5 4 4 3 3 5 4 3 3 4 3 5 2 3 4 4 4 5 2 6 2 6 5 6 15 16 16
7 6 5 6 6 6 10 10 11 6 5 5 5 4 3 2 3 4 2 1 2 3 4 3 5 5 5 7 4 3 6 5 4 4 2 7 5 6 5 5 12 14 16
5 4 4 5 6 4 9 9 7 5 5 4 3 2 1 2 6 5 4 1 3 3 6 7 7 8 11 12 10 2 4 6 7 5 3 5 4 5 4 5 2 10 12
5 4 4 3 5 3 7 8 6 3 3 2 3 3 4 3 6 7 3 2 3 2 3 4 5 7 7 7 10 3 3 4 4 4 1 4 3 4 4 2 3 3 4
Wind_Direction
142 135 129 128 131 111 116 112 120 109 101 94 87 99 86 77 69 57 59 93 96 94 91 88 85 82 79 75 71 67 64 60 60 58 56 51 50 52 51 50 46 40 37
146 140 138 144 135 118 128 123 134 124 109 111 97 95 98 87 81 70 53 83 95 94 94 91 88 85 81 76 71 68 61 57 55 53 53 52 50 45 43 44 44 42 38
156 148 147 151 144 128 114 109 98 108 105 93 98 100 102 98 87 82 74 63 56 86 94 94 91 86 82 76 70 66 62 56 53 51 49 48 47 48 46 41 37 35 35
159 150 149 152 135 115 111 126 129 112 110 127 126 118 109 99 99 86 79 74 68 54 64 97 96 93 88 82 76 70 64 56 50 47 45 44 44 42 39 39 39 33 31
159 161 157 145 140 123 116 136 95 135 129 110 125 110 108 118 122 107 103 95 89 84 65 67 88 97 96 89 80 71 65 59 56 50 46 41 37 34 32 29 25 29 27
162 156 150 144 141 126 124 116 126 72 130 140 117 72 50 44 65 124 135 110 106 99 92 83 61 26 100 91 82 75 70 63 55 50 46 41 35 31 26 23 16 14 11
160 158 152 141 142 145 153 138 109 126 88 119 105 60 37 31 31 33 78 116 143 141 112 109 95 58 71 99 88 73 64 60 55 49 42 38 32 25 20 16 11 6 3
156 162 155 155 153 128 137 147 140 121 92 180 130 109 117 346 348 280 272 189 211 197 208 178 141 140 125 107 119 100 77 62 52 43 36 29 23 18 12 6 2 358 356
92 57 170 153 154 146 155 159 153 132 133 220 210 136 120 195 135 354 255 223 207 213 236 235 223 209 185 183 158 139 127 81 53 38 26 19 13 8 5 358 354 349 346
46 32 315 152 159 150 152 155 152 146 128 147 79 38 66 136 140 129 330 237 215 224 195 218 221 215 201 205 208 210 201 143 89 50 27 11 6 3 357 352 347 342 337
71 69 259 132 125 108 113 137 126 119 111 129 124 131 74 60 75 123 151 133 162 225 272 228 230 216 212 213 217 234 226 195 168 52 12 357 354 350 345 343 340 332 326
96 70 59 54 68 108 117 112 106 103 101 96 101 88 83 67 45 96 104 133 104 355 352 347 212 212 208 222 253 260 263 228 217 271 329 338 329 335 336 333 329 322 315
94 84 72 65 64 77 85 100 106 111 111 102 95 92 83 102 152 131 134 105 1 1 319 338 334 120 217 213 236 251 254 228 219 250 283 306 320 325 324 320 320 314 306
117 106 91 78 88 76 71 77 81 92 95 98 102 107 124 193 203 168 140 115 189 287 312 255 9 48 31 353 297 287 203 265 274 272 295 317 319 319 318 316 315 310 302
134 126 126 120 96 91 88 82 81 84 93 89 88 122 146 173 174 78 70 163 152 198 252 252 124 142 30 11 333 348 50 305 293 305 314 316 316 314 312 308 305 305 312
128 130 124 110 105 97 90 66 55 24 53 78 116 186 170 143 105 95 107 108 75 159 203 43 339 357 7 26 28 19 296 238 237 260 276 292 300 304 304 294 295 312 309
112 127 132 120 123 129 123 113 153 219 172 136 122 154 123 107 95 88 78 79 67 59 114 322 321 326 8 12 342 340 333 320 320 318 314 307 302 305 302 304 301 303 308
108 118 116 110 118 115 126 160 149 145 137 136 138 116 111 99 86 83 83 85 90 70 118 202 280 320 355 5 335 317 303 298 294 294 301 298 300 291 284 302 304 303 303
93 91 99 96 85 77 85 74 83 82 94 95 110 111 109 108 104 97 94 102 98 81 89 113 319 330 299 335 332 317 284 282 270 286 298 301 301 303 300 300 300 304 295
81 85 76 75 73 77 70 74 82 83 72 72 70 82 109 123 136 141 122 132 134 108 82 81 239 266 245 303 301 280 302 296 286 287 287 291 297 307 308 306 299 298 295
77 87 92 83 82 73 68 74 73 75 77 74 64 64 110 137 133 149 125 129 113 101 106 114 291 287 304 301 266 260 268 291 291 255 284 296 293 301 298 303 299 295 292
76 75 69 81 72 79 79 80 73 73 72 85 78 51 42 51 52 64 94 137 147 141 171 193 182 241 252 248 254 274 281 311 311 281 317 295 311 283 279 283 288 293 296
89 74 74 78 77 73 78 80 87 79 85 78 82 85 63 41 62 53 35 46 7 349 331 168 207 232 252 240 244 284 267 253 249 269 222 289 225 288 285 279 296 300 296
97 103 96 88 85 90 82 84 83 77 70 66 70 90 96 34 309 224 185 216 301 301 292 259 219 259 238 271 241 247 293 295 301 286 268 285 278 271 279 280 295 315 303
110 115 127 110 102 72 86 77 91 92 77 70 66 48 220 297 290 289 178 232 317 323 332 333 339 333 335 334 319 24 334 325 311 313 307 292 307 304 275 277 280 343 1
110 120 113 113 130 80 97 81 91 92 79 45 20 10 333 291 297 318 44 164 282 311 346 349 347 341 338 331 350 22 306 313 316 296 144 351 322 335 316 331 316 313 314